Notices

What’s New in latest Release from January 14th 2021:

·       In Historical Hourly Data Report, users can switch between Local Standard Time (LST) and Universal Time Coordinates (UTC) time.

·       In Historical Hourly Data Report, we have an addition of a new column to display hourly precipitation data for the stations where the data are available, from 2001 onwards.

·       Expanded the Search Options of the Canadian Historical Weather Radar, users now able to select 24 hours (1 image every hour) image viewing duration.

Please note that the IDF dataset is available through this link: Intensity-Duration-Frequency (IDF) Files .

Hourly Data Report for November 14, 2020

MUSKOKA
ONTARIO
Current Station Operator: NAVCAN

44°58'29.000" N
79°18'12.000" W
281.90 m
6115529
71532
YQA

Download Data

Hourly Data (November 2020)
Hourly Data Report for November 14, 2020
TIME
LST
Temp Definition
°C
Dew Point Definition
°C
Rel Hum Definition
%
Precip. Amount Definition
mm

Wind Dir Definition
10's deg

Wind Spd Definition
km/h
Visibility Definition
km
Stn Press Definition
kPa
Hmdx Definition


Wind Chill Definition


Weather Definition


00:00 1.7 -3.1 70 LegendMM 32 17 16.1 98.28     LegendNANA
01:00 1.4 -4.6 64 LegendMM 32 18 16.1 98.31     LegendNANA
02:00 1.2 -6.2 58 LegendMM 32 18 16.1 98.39     LegendNANA
03:00 0.9 -6.3 59 LegendMM 32 11 16.1 98.44     LegendNANA
04:00 0.7 -6.3 60 LegendMM 32 9 16.1 98.47     LegendNANA
05:00 0.6 -6.5 59 LegendMM 31 8 16.1 98.53     LegendNANA
06:00 -0.9 -6.3 67 LegendMM 30 4 16.1 98.59   -2 LegendNANA
07:00 -2.0 -6.1 74 LegendMM 36 5 16.1 98.62   -4 LegendNANA
08:00 -1.8 -6.4 71 LegendMM 34 4 16.1 98.69   -3 LegendNANA
09:00 0.3 -5.1 67 LegendMM LegendMM 4 16.1 98.74     LegendNANA
10:00 1.4 -5.1 62 LegendMM 36 8 16.1 98.75     LegendNANA
11:00 3.1 -4.5 57 LegendMM   0 16.1 98.77     LegendNANA
12:00 3.9 -4.3 55 LegendMM 26 9 16.1 98.76     LegendNANA
13:00 4.3 -4.5 53 LegendMM 27 11 16.1 98.74     LegendNANA
14:00 4.7 -4.3 52 LegendMM 31 11 16.1 98.75     LegendNANA
15:00 5.0 -4.4 51 LegendMM 30 5 16.1 98.72     LegendNANA
16:00 4.7 -4.6 51 LegendMM 23 8 16.1 98.75     LegendNANA
17:00 0.5 -4.7 68 LegendMM   0 16.1 98.76     LegendNANA
18:00 -1.5 -4.9 78 LegendMM   0 16.1 98.74     LegendNANA
19:00 -2.9 -5.1 85 LegendMM LegendMM 4 16.1 98.66   -4 LegendNANA
20:00 -2.1 -4.8 82 LegendMM 11 8 16.1 98.59   -5 LegendNANA
21:00 -1.0 -4.6 77 LegendMM 13 8 16.1 98.62   -4 LegendNANA
22:00 -0.8 -4.0 79 LegendMM 13 9 16.1 98.54   -4 LegendNANA
23:00 -0.5 -3.9 78 LegendMM 14 11 16.1 98.48   -4 LegendNANA

Notes on Data Quality.

Legend

  • E = Estimated
  • M = Missing
  • NA = Not Available*
  • [empty] = Indicates an unobserved value
Date modified: